Location: Chuathbaluk
(61.5726°N, 159.2454°W)
Time: 17:05:00
(UTC+00:00)

NOAA 15 - Pass Details

Date: 21 January 2021
Orbit: 798 x 812 km, 98.7° (Epoch: 05 March)

Event Time Altitude Azimuth Distance (km) Brightness Sun altitude
Rises 17:45:16 0° 19° (NNE) 3,342 7.8 -10.8°
Reaches altitude 10° 17:47:48 10° 28° (NNE) 2,408 7.2 -10.5°
Maximum altitude 17:52:42 36° 95° (E) 1,270 6.4 -10.0°
Drops below altitude 10° 17:57:35 10° 162° (SSE) 2,400 7.7 -9.4°
Sets 18:00:06 0° 170° (S) 3,328 8.3 -9.2°
